TimeMDT,TemperatureF,Dew PointF,Humidity,Sea Level PressureIn,VisibilityMPH,Wind Direction,Wind SpeedMPH,Gust SpeedMPH,PrecipitationIn,Events,Conditions,WindDirDegrees,DateUTC
12:16 AM,37.4,35.6,93,29.94,6.0,WSW,3.5,-,0.02,Rain,Light Rain,240,2013-05-23 06:16:00
12:27 AM,35.6,33.8,93,29.94,5.0,SW,5.8,-,0.04,Rain,Rain,230,2013-05-23 06:27:00
12:34 AM,35.6,33.8,93,29.92,3.0,NW,5.8,-,0.06,Rain,Heavy Rain,320,2013-05-23 06:34:00
12:42 AM,35.6,33.8,93,29.89,3.0,North,6.9,-,0.08,Snow,Light Snow,350,2013-05-23 06:42:00
12:50 AM,33.8,32.0,93,29.88,2.5,NNW,8.1,-,0.10,Snow,Light Snow,340,2013-05-23 06:50:00
12:53 AM,34.0,32.0,92,29.84,2.5,NNW,6.9,-,0.11,Snow,Light Snow,330,2013-05-23 06:53:00
1:02 AM,33.8,33.8,100,29.92,4.0,SW,8.1,-,0.00,Snow,Light Snow,230,2013-05-23 07:02:00
1:19 AM,33.8,32.0,93,29.90,3.0,West,3.5,-,0.02,Snow,Light Snow,260,2013-05-23 07:19:00
1:22 AM,33.8,32.0,93,29.91,1.8,WSW,4.6,-,0.03,Snow,Light Snow,250,2013-05-23 07:22:00
1:29 AM,33.8,32.0,93,29.94,1.5,SSW,8.1,-,0.04,Snow,Light Snow,210,2013-05-23 07:29:00
1:53 AM,33.1,32.0,96,29.88,1.0,NE,3.5,-,0.08,Snow,Light Snow,40,2013-05-23 07:53:00
2:06 AM,33.8,32.0,93,29.93,0.8,NNE,3.5,-,0.03,Snow,Light Snow,20,2013-05-23 08:06:00
2:24 AM,32.0,30.2,93,29.92,1.0,NNW,5.8,-,0.05,Snow,Light Snow,340,2013-05-23 08:24:00
2:31 AM,32.0,32.0,100,29.93,0.8,NW,3.5,-,0.06,Snow,Light Snow,320,2013-05-23 08:31:00
2:35 AM,32.0,32.0,100,29.93,1.0,NW,3.5,-,0.06,Snow,Light Snow,310,2013-05-23 08:35:00
2:48 AM,32.0,32.0,100,29.92,0.8,Calm,Calm,-,0.08,Snow,Light Snow,0,2013-05-23 08:48:00
2:53 AM,32.0,32.0,100,29.88,1.0,NW,3.5,-,0.09,Snow,Light Snow,320,2013-05-23 08:53:00
3:25 AM,32.0,32.0,100,29.90,1.8,NW,4.6,-,0.01,Snow,Light Snow,310,2013-05-23 09:25:00
3:41 AM,32.0,32.0,100,29.91,1.0,Calm,Calm,-,0.03,Snow,Light Snow,0,2013-05-23 09:41:00
3:53 AM,32.0,32.0,100,29.88,1.2,SSE,4.6,-,0.04,Snow,Light Snow,160,2013-05-23 09:53:00
4:05 AM,32.0,32.0,100,29.91,1.0,East,3.5,-,0.02,Snow,Light Snow,100,2013-05-23 10:05:00
4:46 AM,32.0,30.2,93,29.93,0.8,North,4.6,-,0.07,Snow,Light Snow,350,2013-05-23 10:46:00
4:53 AM,32.0,30.9,96,29.91,0.8,NNW,5.8,-,0.08,Snow,Light Snow,340,2013-05-23 10:53:00
5:28 AM,30.2,30.2,100,29.92,1.0,NNW,3.5,-,0.04,Snow,Light Snow,330,2013-05-23 11:28:00
5:53 AM,30.9,30.9,100,29.91,1.5,NW,4.6,-,0.05,Snow,Light Snow,310,2013-05-23 11:53:00
6:03 AM,30.2,30.2,100,29.93,1.8,Calm,Calm,-,0.01,Snow,Light Snow,0,2013-05-23 12:03:00
6:19 AM,32.0,30.2,93,29.93,0.5,Calm,Calm,-,0.02,Fog-Snow,Light Snow,0,2013-05-23 12:19:00
6:33 AM,30.2,30.2,100,29.93,1.0,WNW,4.6,-,0.02,Snow,Light Snow,300,2013-05-23 12:33:00
6:53 AM,30.9,30.0,96,29.92,0.8,WNW,3.5,-,0.03,Snow,Light Snow,290,2013-05-23 12:53:00
7:18 AM,30.2,30.2,100,29.93,1.5,NW,5.8,-,0.01,Snow,Light Snow,320,2013-05-23 13:18:00
7:27 AM,30.2,28.4,93,29.94,2.0,WNW,3.5,-,0.01,Snow,Light Snow,300,2013-05-23 13:27:00
7:35 AM,30.2,30.2,100,29.94,1.0,Calm,Calm,-,0.01,Snow,Light Snow,0,2013-05-23 13:35:00
7:44 AM,30.2,30.2,100,29.94,1.0,Calm,Calm,-,0.01,Snow,Light Snow,0,2013-05-23 13:44:00
7:53 AM,30.9,30.0,96,29.93,1.8,Calm,Calm,-,0.01,Snow,Light Snow,0,2013-05-23 13:53:00
8:21 AM,32.0,30.2,93,29.94,1.2,Calm,Calm,-,0.01,Snow,Light Snow,0,2013-05-23 14:21:00
8:53 AM,32.0,30.0,92,29.94,1.2,Calm,Calm,-,0.02,Snow,Light Snow,0,2013-05-23 14:53:00
9:08 AM,32.0,30.2,93,29.95,3.0,Calm,Calm,-,0.00,Snow,Light Snow,0,2013-05-23 15:08:00
9:34 AM,32.0,28.4,87,29.94,1.8,NW,6.9,-,0.00,Snow,Light Snow,310,2013-05-23 15:34:00
9:53 AM,32.0,30.0,92,29.96,1.0,WNW,5.8,-,0.01,Snow,Light Snow,290,2013-05-23 15:53:00
10:21 AM,32.0,30.2,93,29.95,1.0,WNW,6.9,-,0.01,Snow,Light Snow,290,2013-05-23 16:21:00
10:27 AM,32.0,30.2,93,29.95,2.0,West,6.9,-,0.01,Snow,Light Snow,280,2013-05-23 16:27:00
10:29 AM,32.0,30.2,93,29.95,3.0,WNW,9.2,-,0.01,Snow,Light Snow,290,2013-05-23 16:29:00
10:32 AM,32.0,30.2,93,29.95,4.0,WNW,8.1,-,0.01,Snow,Light Snow,300,2013-05-23 16:32:00
10:53 AM,33.1,30.9,92,29.98,10.0,NW,5.8,-,0.01,,Overcast,310,2013-05-23 16:53:00
11:03 AM,33.8,30.2,87,29.95,10.0,NW,4.6,-,N/A,,Overcast,310,2013-05-23 17:03:00
11:17 AM,33.8,30.2,87,29.95,10.0,NW,5.8,-,N/A,,Overcast,320,2013-05-23 17:17:00
11:42 AM,33.8,30.2,87,29.95,10.0,WNW,5.8,-,N/A,,Overcast,300,2013-05-23 17:42:00
11:53 AM,34.0,30.0,85,29.99,10.0,NW,5.8,-,N/A,,Overcast,310,2013-05-23 17:53:00
12:30 PM,35.6,30.2,81,29.94,10.0,WNW,6.9,-,N/A,,Overcast,290,2013-05-23 18:30:00
12:53 PM,35.1,30.0,82,30.00,10.0,WNW,6.9,-,N/A,,Overcast,300,2013-05-23 18:53:00
1:01 PM,35.6,30.2,81,29.95,10.0,WNW,8.1,-,N/A,,Overcast,290,2013-05-23 19:01:00
1:08 PM,35.6,30.2,81,29.95,10.0,NW,5.8,-,N/A,,Overcast,310,2013-05-23 19:08:00
1:37 PM,37.4,32.0,81,29.95,10.0,NW,6.9,-,N/A,,Overcast,320,2013-05-23 19:37:00
1:53 PM,36.0,30.0,79,29.99,10.0,NW,6.9,-,N/A,,Overcast,310,2013-05-23 19:53:00
2:53 PM,36.0,30.9,82,30.00,10.0,WNW,5.8,-,N/A,,Overcast,290,2013-05-23 20:53:00
3:53 PM,37.0,32.0,82,29.99,10.0,WNW,3.5,-,N/A,,Overcast,290,2013-05-23 21:53:00
4:53 PM,37.9,33.1,83,29.98,10.0,Calm,Calm,-,N/A,,Overcast,0,2013-05-23 22:53:00
5:53 PM,36.0,33.1,89,29.98,2.5,NW,6.9,-,0.04,Snow,Light Snow,310,2013-05-23 23:53:00
6:03 PM,35.6,33.8,93,29.93,4.0,Calm,Calm,-,0.01,Snow,Light Snow,0,2013-05-24 00:03:00
6:18 PM,33.8,33.8,100,29.94,2.0,ESE,5.8,-,0.03,Snow,Light Snow,110,2013-05-24 00:18:00
6:26 PM,33.8,33.8,100,29.93,3.0,East,5.8,-,0.03,Snow,Light Snow,100,2013-05-24 00:26:00
6:29 PM,33.8,33.8,100,29.94,2.5,East,5.8,-,0.03,Snow,Light Snow,90,2013-05-24 00:29:00
6:34 PM,33.8,33.8,100,29.92,1.5,East,4.6,-,0.04,Snow,Light Snow,80,2013-05-24 00:34:00
6:51 PM,33.8,32.0,93,29.91,0.8,North,3.5,-,0.08,Snow,Light Snow,350,2013-05-24 00:51:00
6:53 PM,33.1,32.0,96,29.98,0.8,NNW,4.6,-,0.08,Snow,Light Snow,330,2013-05-24 00:53:00
7:16 PM,33.8,32.0,93,29.91,1.8,NW,9.2,-,0.03,Snow,Light Snow,320,2013-05-24 01:16:00
7:19 PM,33.8,32.0,93,29.92,3.0,WNW,8.1,-,0.03,Snow,Light Snow,290,2013-05-24 01:19:00
7:36 PM,33.8,32.0,93,29.95,2.5,West,13.8,26.5,0.04,Snow,Light Snow,270,2013-05-24 01:36:00
7:40 PM,33.8,32.0,93,29.95,1.8,WNW,11.5,-,0.05,Snow,Light Snow,300,2013-05-24 01:40:00
7:53 PM,34.0,32.0,92,30.01,1.0,North,6.9,-,0.06,Snow,Light Snow,350,2013-05-24 01:53:00
8:01 PM,33.8,32.0,93,29.95,0.8,NNE,6.9,-,0.01,Snow,Light Snow,20,2013-05-24 02:01:00
8:07 PM,33.8,32.0,93,29.95,0.5,NNW,5.8,-,0.02,Fog-Snow,Snow,340,2013-05-24 02:07:00
8:22 PM,33.8,32.0,93,29.95,0.8,NW,6.9,-,0.03,Snow,Light Snow,310,2013-05-24 02:22:00
8:32 PM,33.8,32.0,93,29.96,1.2,WNW,9.2,-,0.03,Snow,Light Snow,300,2013-05-24 02:32:00
8:45 PM,33.8,32.0,93,29.97,2.0,West,8.1,-,0.04,Snow,Light Snow,260,2013-05-24 02:45:00
8:53 PM,33.1,32.0,96,30.03,5.0,WNW,6.9,-,0.04,Snow,Light Snow,290,2013-05-24 02:53:00
9:11 PM,33.8,32.0,93,29.97,2.5,West,6.9,-,0.02,Snow,Light Snow,280,2013-05-24 03:11:00
9:20 PM,33.8,32.0,93,29.97,3.0,WNW,8.1,-,0.02,Snow,Light Snow,290,2013-05-24 03:20:00
9:29 PM,33.8,32.0,93,29.98,1.8,NW,4.6,-,0.03,Snow,Light Snow,310,2013-05-24 03:29:00
9:40 PM,33.8,32.0,93,29.99,1.5,WNW,3.5,-,0.05,Snow,Light Snow,290,2013-05-24 03:40:00
9:48 PM,33.8,32.0,93,29.99,1.5,North,3.5,-,0.06,Snow,Light Snow,350,2013-05-24 03:48:00
9:53 PM,33.1,32.0,96,30.05,1.2,Calm,Calm,-,0.07,Snow,Light Snow,0,2013-05-24 03:53:00
10:01 PM,33.8,30.2,87,29.98,1.0,NNE,4.6,-,0.01,Snow,Light Snow,20,2013-05-24 04:01:00
10:27 PM,32.0,32.0,100,29.95,2.5,NW,5.8,-,0.02,Snow,Light Snow,310,2013-05-24 04:27:00
10:34 PM,32.0,32.0,100,29.96,5.0,West,4.6,-,0.02,Snow,Light Snow,270,2013-05-24 04:34:00
10:53 PM,33.1,32.0,96,30.03,10.0,East,3.5,-,0.02,,Overcast,80,2013-05-24 04:53:00
11:06 PM,33.8,32.0,93,29.95,10.0,East,4.6,-,N/A,,Overcast,80,2013-05-24 05:06:00
11:19 PM,33.8,32.0,93,29.93,10.0,Calm,Calm,-,N/A,,Overcast,0,2013-05-24 05:19:00
11:53 PM,33.1,32.0,96,30.00,9.0,SSE,5.8,-,N/A,,Overcast,150,2013-05-24 05:53:00